[[{"header":{"parameterUnit":"m.s-1","parameterCategory":1,"la1":30.2991,"la2":30.254,"lo1":-89.0895,"lo2":-89.0444,"dy":0.0017,"dx":0.0017,"nx":28,"ny":28,"refTime":"2025-01-12T09:00:00:Z","depth":0,"parameterNumber":2,"parameterNumberName":"U-component_of_WINDS"},"data":[0,0,0,0,0,0,0,0,0,0,0,0,0,0,0,0,0,0,0,0,0,0,0,0,0,0,0,0,0,0,0,0,0,0,0,0,0,0,0,0,0,0,0,0,0,0,0,0,0,0,0,0,0,0,0,0,0,0,-3.8836,-3.8835,0,-3.8759,-3.8758,-3.8757,-3.8571,-3.8567,-3.8563,-3.856,-3.8488,-3.849,-3.8491,0,0,0,0,0,0,0,0,0,0,0,0,0,-3.8831,-3.8832,-3.8836,-3.8835,-3.8834,-3.8759,-3.8758,-3.8757,-3.8572,-3.8567,-3.8562,-3.8558,-3.8487,-3.8489,-3.8492,0,0,0,0,0,0,0,0,0,0,0,0,0,-3.8802,-3.8832,-3.8836,-3.8732,-3.8722,-3.8759,-3.8758,-3.8756,-3.8573,-3.8567,-3.8561,-3.8556,-3.8487,-3.8489,-3.8492,-3.8625,0,0,-3.85,-3.8501,0,0,0,0,0,0,0,0,-3.8804,-3.8802,-3.8749,-3.874,-3.8728,-3.8668,-3.8729,-3.8712,-3.8574,-3.863,-3.856,-3.8553,-3.8553,-3.855,-3.8549,-3.8621,-3.8618,-3.85,-3.8502,-3.8503,-3.8503,0,0,0,0,0,0,0,-3.8806,-3.8804,-3.8805,-3.8748,-3.8736,-3.8692,-3.8682,-3.8725,-3.8626,-3.8625,-3.8611,-3.8604,-3.8547,-3.8547,-3.8546,-3.8617,-3.85,-3.8502,-3.8504,-3.8505,-3.8797,-3.8803,0,0,0,0,0,0,-3.8822,-3.8807,-3.8808,-3.8803,-3.8752,-3.8697,-3.8685,-3.8694,-3.8624,-3.8608,-3.8609,-3.8596,-3.8545,-3.8543,-3.8542,-3.8694,-3.8503,-3.8505,-3.8507,-3.8791,-3.8799,-3.8805,0,0,0,0,0,0,-3.8822,-3.8824,-3.8811,-3.8801,-3.8796,-3.8703,-3.8714,-3.8695,-3.8695,-3.8613,-3.8595,-3.8627,-3.854,-3.8539,-3.8605,-3.8689,-3.8506,-3.8509,-3.8784,-3.8793,-3.8802,-3.8999,0,0,0,0,0,0,-3.8823,-3.8825,-3.8873,-3.8804,-3.8798,-3.8874,-3.8719,-3.8698,-3.8699,-3.8681,-3.8624,-3.861,-3.8536,-3.8603,-3.8608,-3.8689,-3.8511,-3.8776,-3.8788,-3.8799,-3.8984,-3.9014,-3.9039,0,0,0,0,0,-3.8824,-3.8932,-3.8876,-3.8877,-3.8855,-3.8879,-3.8875,-3.8786,-3.8706,-3.8755,-3.8702,-3.8611,-3.8679,-3.8611,-3.8616,-3.8699,-3.877,-3.8785,-3.8798,-3.8972,-3.9008,-3.9038,0,0,0,0,0,0,-3.9016,-3.8921,-3.8858,-3.8947,-3.8922,-3.8847,-3.8905,-3.8826,-3.8825,-3.8809,-3.87,-3.8689,-3.8771,-3.8741,-3.8667,-3.8825,-3.871,-3.8726,-3.8841,-3.8874,-3.8901,-3.8906,-3.8513,0,0,0,0,0,-3.9068,-3.9093,-3.901,-3.9097,-3.9088,-3.9,-3.9006,-3.8939,-3.891,-3.8899,-3.8851,-3.8829,-3.8845,-3.8858,-3.8868,-3.8979,-3.8965,-3.9039,-3.9066,-3.9089,-3.9104,-3.9162,-3.9194,-3.8851,-3.8851,-3.8851,0,0,-3.9177,-3.9129,-3.9151,-3.9135,-3.9107,-3.9138,-3.8992,-3.903,-3.9052,-3.8906,-3.8965,-3.893,-3.8898,-3.8988,-3.9025,-3.8966,-3.9196,-3.9107,-3.9125,-3.9128,-3.918,-3.9212,-3.9241,-3.8861,-3.8859,-3.8857,0,0,-3.9391,-3.9357,-3.9426,-3.9401,-3.9361,-3.9302,-3.9319,-3.9256,-3.9226,-3.9284,-3.9175,-3.9202,-3.9231,-3.9213,-3.9207,-3.9417,-3.9334,-3.9424,-3.9566,-3.9624,-3.9651,-3.9674,-3.975,-3.9778,-3.9439,-3.9439,-3.944,0,-3.9533,-3.9572,-3.9472,-3.9517,-3.9514,-3.9381,-3.9451,-3.9433,-3.94,-3.9402,-3.9335,-3.937,-3.9339,-3.9423,-3.9475,-3.9475,-3.9492,-3.9429,-3.9654,-3.9677,-3.9698,-3.9769,-3.9797,-3.945,-3.9449,-3.9448,-3.9447,0,-3.9748,-3.9778,-3.9838,-3.9807,-3.9811,-3.9869,-3.978,-3.9797,-3.973,-3.9679,-3.9741,-3.9699,-3.9699,-3.9714,-3.965,-3.9791,-3.9755,-3.9674,-3.9556,-3.9743,-3.9808,-3.9834,-3.9466,-3.9462,-3.9459,-3.9456,0,0,-4.008,-3.9993,-4.0018,-4.0002,-3.9949,-3.9971,-4.0025,-4.0022,-4.0039,-4.0021,-4.0064,-4.0093,-4.0017,-4.0012,-3.9945,-3.9996,-4.0166,-3.9908,-3.9905,-3.9958,-4.032,-4.0382,-4.0415,-4.0111,-4.0116,-4.012,-4.0323,0,-4.0282,-4.0365,-4.0277,-4.038,-4.0406,-4.0281,-4.0328,-4.0302,-4.0257,-4.0275,-4.0225,-4.0247,-4.0145,-4.0141,-4.0186,-4.0136,-4.0238,-4.012,-4.0152,-4.0155,-4.0164,-4.0448,-4.0513,-4.0707,-4.0348,-4.0352,-4.0355,0,-4.0528,-4.0519,-4.0624,-4.0565,-4.0573,-4.0616,-4.0608,-4.0626,-4.0595,-4.0559,-4.0553,-4.0472,-4.0523,-4.0409,-4.0479,-4.0401,-4.0409,-4.0387,-4.0393,-4.0392,-4.0266,-4.0457,-4.0766,-4.0796,-4.0394,-4.0391,-4.0388,0,-4.0761,-4.0776,-4.084,-4.0831,-4.0764,-4.0797,-4.0772,-4.0734,-4.0739,-4.0733,-4.0735,-4.0737,-4.0738,-4.0742,-4.0664,-4.0588,-4.0745,-4.0624,-4.0718,-4.072,-4.0756,-4.0755,-4.1073,-4.0762,-4.0762,-4.0761,-4.0761,0,-4.0995,-4.1064,-4.0944,-4.0984,-4.1058,-4.0958,-4.1036,-4.0997,-4.0966,-4.0998,-4.0892,-4.0925,-4.082,-4.0843,-4.0784,-4.0852,-4.0853,-4.0826,-4.081,-4.0836,-4.0839,-4.084,-4.0824,-4.0769,-4.0767,-4.0766,-4.0764,0,-4.1267,-4.1189,-4.1251,-4.1182,-4.1167,-4.1225,-4.1167,-4.1203,-4.115,-4.1193,-4.1197,-4.1116,-4.1137,-4.106,-4.107,-4.103,-4.113,-4.1091,-4.114,-4.1128,-4.1227,-4.1219,-4.1556,-4.1595,-4.126,-4.1263,-4.1266,0,-4.1421,-4.1471,-4.1407,-4.142,-4.1399,-4.1421,-4.1425,-4.133,-4.1339,-4.1309,-4.1349,-4.1361,-4.1366,-4.1407,-4.1351,-4.1358,-4.1319,-4.1437,-4.1319,-4.1345,-4.1321,-4.1319,-4.1324,-4.1461,-4.1465,-4.1469,-4.1471,0,-4.1704,-4.1663,-4.1671,-4.1667,-4.1674,-4.1667,-4.1652,-4.167,-4.1568,-4.1584,-4.1603,-4.1607,-4.1616,-4.1631,-4.1627,-4.1603,-4.1522,-4.1509,-4.1531,-4.1558,-4.1584,-4.1572,-4.1207,-4.1501,-4.1498,-4.1496,-4.1494,-4.1493,-4.1921,-4.196,-4.1922,-4.1935,-4.1914,-4.1903,-4.1933,-4.1884,-4.1898,-4.1896,-4.1841,-4.1872,-4.1843,-4.1828,-4.1812,-4.1837,-4.1783,-4.1815,-4.1823,-4.1832,-4.1849,-4.1581,-4.1836,-4.1835,-4.1834,-4.1834,-4.1833,0,-4.2198,-4.2167,-4.2181,-4.2163,-4.2175,-4.2095,-4.2076,-4.2091,-4.2119,-4.2097,-4.2104,-4.2128,-4.2142,-4.2087,-4.2094,-4.2125,-4.2088,-4.213,-4.2127,-4.2123,-4.1897,-4.1877,-4.216,-4.216,-4.216,-4.216,-4.216,-4.216,-4.2344,-4.2405,-4.2361,-4.2412,-4.2381,-4.2409,-4.2405,-4.2396,-4.2377,-4.2408,-4.2418,-4.2382,-4.2348,-4.2351,-4.2362,-4.2345,-4.2353,-4.2409,-4.238,-4.217,-4.2139,-4.2108,-4.2089,-4.2411,-4.2411,-4.2603,-4.2605,-4.2606]},{"header":{"parameterUnit":"m.s-1","parameterCategory":1,"la1":30.2991,"la2":30.254,"lo1":-89.0895,"lo2":-89.0444,"dy":0.0017,"dx":0.0017,"nx":28,"ny":28,"refTime":"2025-01-12T09:00:00:Z","depth":0,"parameterNumber":3,"parameterNumberName":"V-component_of_WINDS"},"data":[0,0,0,0,0,0,0,0,0,0,0,0,0,0,0,0,0,0,0,0,0,0,0,0,0,0,0,0,0,0,0,0,0,0,0,0,0,0,0,0,0,0,0,0,0,0,0,0,0,0,0,0,0,0,0,0,0,0,-2.4194,-2.4192,0,-2.399,-2.3988,-2.3985,-2.4006,-2.4009,-2.4012,-2.4015,-2.3785,-2.3776,-2.3767,0,0,0,0,0,0,0,0,0,0,0,0,0,-2.458,-2.4573,-2.4195,-2.4192,-2.419,-2.399,-2.3988,-2.3985,-2.4005,-2.4009,-2.4013,-2.4017,-2.3788,-2.3777,-2.3766,0,0,0,0,0,0,0,0,0,0,0,0,0,-2.4397,-2.457,-2.4195,-2.4176,-2.4173,-2.3991,-2.3987,-2.3984,-2.4004,-2.4009,-2.4014,-2.4019,-2.3792,-2.3778,-2.3765,-2.3582,0,0,-2.3723,-2.3717,0,0,0,0,0,0,0,0,-2.4407,-2.4383,-2.4182,-2.4177,-2.4173,-2.4029,-2.4039,-2.3848,-2.4003,-2.4068,-2.4016,-2.4021,-2.3861,-2.3842,-2.3792,-2.3571,-2.3561,-2.3721,-2.3713,-2.3707,-2.3703,0,0,0,0,0,0,0,-2.442,-2.4392,-2.4113,-2.4179,-2.4173,-2.417,-2.415,-2.4003,-2.3938,-2.4062,-2.4064,-2.404,-2.3859,-2.3805,-2.3787,-2.3558,-2.3722,-2.371,-2.3701,-2.3696,-2.3167,-2.3161,0,0,0,0,0,0,-2.444,-2.4402,-2.412,-2.4107,-2.4305,-2.416,-2.4137,-2.407,-2.3941,-2.3926,-2.4036,-2.4042,-2.3826,-2.3803,-2.3779,-2.3549,-2.3707,-2.3694,-2.3686,-2.3172,-2.3165,-2.3159,0,0,0,0,0,0,-2.4449,-2.4415,-2.4128,-2.4255,-2.4218,-2.4148,-2.4072,-2.4063,-2.401,-2.3921,-2.3907,-2.3994,-2.3829,-2.3798,-2.363,-2.3542,-2.3688,-2.3676,-2.3179,-2.317,-2.3162,-2.3094,0,0,0,0,0,0,-2.446,-2.4418,-2.4354,-2.4254,-2.4212,-2.399,-2.4068,-2.4056,-2.3988,-2.3994,-2.3878,-2.3863,-2.3831,-2.3651,-2.3616,-2.3525,-2.3665,-2.3187,-2.3175,-2.3165,-2.3103,-2.3084,-2.3067,0,0,0,0,0,-2.4473,-2.434,-2.435,-2.4316,-2.4131,-2.3985,-2.396,-2.3931,-2.3981,-2.3911,-2.3853,-2.3867,-2.3559,-2.3633,-2.3595,-2.3498,-2.3192,-2.3179,-2.3166,-2.3111,-2.3088,-2.3067,0,0,0,0,0,0,-2.4425,-2.4326,-2.4337,-2.4169,-2.4086,-2.3989,-2.39,-2.3908,-2.3804,-2.3812,-2.3775,-2.3748,-2.3577,-2.3522,-2.3607,-2.331,-2.3381,-2.3359,-2.3352,-2.3329,-2.3311,-2.3324,-2.3653,0,0,0,0,0,-2.4396,-2.4293,-2.421,-2.4068,-2.4027,-2.3971,-2.3906,-2.3892,-2.3801,-2.3764,-2.3694,-2.36,-2.348,-2.3403,-2.3289,-2.3097,-2.3066,-2.3011,-2.2993,-2.2979,-2.2958,-2.2843,-2.2815,-2.3116,-2.3116,-2.3117,0,0,-2.4332,-2.4266,-2.4202,-2.4057,-2.3991,-2.3876,-2.3941,-2.3819,-2.3731,-2.3743,-2.358,-2.3525,-2.3416,-2.3234,-2.315,-2.3182,-2.2869,-2.2962,-2.2951,-2.2938,-2.2827,-2.2798,-2.2773,-2.3107,-2.3109,-2.311,0,0,-2.4157,-2.41,-2.3973,-2.3906,-2.3808,-2.3771,-2.374,-2.3641,-2.3606,-2.3445,-2.3449,-2.334,-2.3139,-2.3059,-2.2992,-2.2782,-2.2786,-2.2746,-2.2648,-2.2536,-2.2512,-2.2491,-2.2407,-2.2379,-2.2727,-2.2727,-2.2727,0,-2.4087,-2.3924,-2.3905,-2.3781,-2.3713,-2.3726,-2.3591,-2.3525,-2.339,-2.3339,-2.338,-2.3123,-2.3051,-2.2846,-2.2795,-2.2743,-2.2698,-2.2756,-2.2519,-2.2497,-2.2476,-2.2396,-2.2366,-2.2722,-2.2723,-2.2723,-2.2724,0,-2.3839,-2.3724,-2.3632,-2.3508,-2.343,-2.3301,-2.3255,-2.3177,-2.3168,-2.3124,-2.2953,-2.2868,-2.2734,-2.2685,-2.2674,-2.2475,-2.2497,-2.2529,-2.2598,-2.2443,-2.2366,-2.2336,-2.2715,-2.2717,-2.2719,-2.272,0,0,-2.3624,-2.3493,-2.3458,-2.3399,-2.3289,-2.3196,-2.3064,-2.2939,-2.2868,-2.2775,-2.2656,-2.2484,-2.2511,-2.2435,-2.2414,-2.2318,-2.2146,-2.236,-2.2356,-2.2316,-2.191,-2.1882,-2.1847,-2.2152,-2.2146,-2.2141,-2.1917,0,-2.3432,-2.3207,-2.3184,-2.2978,-2.2866,-2.2875,-2.2758,-2.2673,-2.2628,-2.252,-2.2467,-2.2343,-2.2393,-2.2346,-2.2251,-2.2188,-2.2063,-2.2204,-2.203,-2.2024,-2.205,-2.1809,-2.1779,-2.1572,-2.1888,-2.1883,-2.1879,0,-2.3177,-2.3081,-2.2865,-2.2766,-2.2718,-2.2615,-2.2495,-2.2395,-2.2296,-2.2268,-2.2183,-2.2174,-2.2027,-2.2107,-2.1899,-2.1996,-2.1923,-2.188,-2.1871,-2.1847,-2.1937,-2.177,-2.1506,-2.1471,-2.1833,-2.1837,-2.184,0,-2.3032,-2.2848,-2.2694,-2.2644,-2.2527,-2.2452,-2.2399,-2.2306,-2.2229,-2.2122,-2.207,-2.1946,-2.1875,-2.1774,-2.1727,-2.1792,-2.1518,-2.1597,-2.1483,-2.1483,-2.1419,-2.1422,-2.1131,-2.1386,-2.1387,-2.1387,-2.1388,0,-2.2815,-2.268,-2.2626,-2.253,-2.2376,-2.2349,-2.2195,-2.2143,-2.2059,-2.1946,-2.1946,-2.1838,-2.1788,-2.1669,-2.1632,-2.1459,-2.1429,-2.1395,-2.1385,-2.1391,-2.1394,-2.1337,-2.1347,-2.1379,-2.1381,-2.1382,-2.1384,0,-2.2624,-2.2585,-2.2415,-2.2319,-2.2292,-2.2181,-2.2095,-2.1996,-2.1954,-2.181,-2.1774,-2.1702,-2.1562,-2.1509,-2.1337,-2.1311,-2.1109,-2.1115,-2.1144,-2.1139,-2.1025,-2.1033,-2.068,-2.0628,-2.0926,-2.0923,-2.0921,0,-2.2485,-2.2382,-2.2276,-2.2203,-2.2149,-2.2032,-2.1955,-2.1922,-2.1841,-2.1718,-2.1631,-2.1494,-2.1382,-2.1156,-2.1083,-2.0949,-2.0945,-2.0831,-2.0924,-2.0931,-2.0932,-2.0936,-2.092,-2.0811,-2.0808,-2.0806,-2.0804,0,-2.2238,-2.2223,-2.2117,-2.2001,-2.1911,-2.1817,-2.1725,-2.1664,-2.1615,-2.1522,-2.1383,-2.1296,-2.1121,-2.098,-2.0842,-2.0777,-2.0776,-2.0776,-2.0741,-2.0741,-2.0758,-2.0738,-2.1087,-2.0782,-2.0784,-2.0786,-2.0787,-2.0788,-2.2062,-2.1968,-2.1878,-2.1757,-2.1686,-2.1599,-2.1501,-2.1447,-2.1332,-2.1192,-2.1178,-2.1025,-2.092,-2.0736,-2.0665,-2.0538,-2.0567,-2.0518,-2.0504,-2.049,-2.0478,-2.0787,-2.0513,-2.0514,-2.0514,-2.0515,-2.0515,0,-2.1807,-2.1751,-2.1641,-2.1514,-2.1416,-2.1436,-2.1334,-2.1247,-2.1115,-2.1022,-2.0913,-2.0747,-2.0609,-2.0526,-2.0386,-2.0299,-2.0295,-2.0262,-2.0264,-2.0246,-2.0465,-2.0505,-2.0268,-2.0268,-2.0268,-2.0268,-2.0268,-2.0268,-2.1663,-2.1503,-2.1477,-2.1277,-2.1219,-2.1075,-2.1013,-2.0929,-2.0854,-2.0672,-2.056,-2.051,-2.0416,-2.0269,-2.014,-2.0118,-2.0062,-2.0025,-2.0004,-2.0207,-2.0232,-2.0256,-2.0294,-2.0016,-2.0015,-1.9795,-1.9793,-1.9791]}]]